星链-6184 (STARLINK-6184 )

导读

STARLINK-6184是美国太空探索技术公司(SpaceX)星链互联网星座中的一员,于北京时间2023年6月22日发射升空。作为低轨互联网卫星,它属于星链大规模组网的一部分,运行在近地轨道,为全球范围提供高速互联网接入服务,尤其能填补偏远地区网络覆盖空白,助力天地一体化网络构建,推动卫星互联网技术商业化发展。

基本信息
目录编号:
57081
目录名称:
STARLINK-6184
国际标识:
2023-088AK
轨道中心:
EARTH
卫星名称:
星链-6184
卫星全名:
星链-6184 (STARLINK-6184 )
卫星状态:
在轨 (已飞行1088 天)
发射日期:
2023-06-22 UTC
国别 :
美国 (US)
星等 :
--
轨道信息
数据来源 国际轨道数据
星历时间: 2026-06-14T08:20:41+0800
20小时前
查看轨道信息
半长轴: 6861.213km
偏心率: 0.0001927
轨道倾角: 43.005°
近地点辐角 280.657°
升交点赤经 271.996°
平近点角 79.407°
近地点: 481.753km
远地点: 484.399km
周期: 94.267分钟
每日圈数: 15.275711
详细信息
固有亮度:
5
最大亮度:
2.4
卫星平台:
Starlink v1.5
覆盖范围:
全球
运营商:
太空探索技术公司
运营商所在国:
美国
制造商(研发单位):
太空探索技术公司
制造商所在国:
美国
使用方式:
暂无
卫星简介
星链(Starlink)计划是由太空探索技术公司(SpaceX)提出的一个巨型低轨卫星互联网星座项目,计划在2019年至2024年间在太空搭建由约1.2万颗卫星组成的“星链”网络,其中1584颗将部署在地球上空550千米处的近地轨道,并从2020年开始工作。该卫星仍在工作。
2D轨道图
3D轨道图
轨道高度分析图
轨道倾角分析图
轨道综合分析图
查看轨道综合分析图